EW0680 Weather Reports


time (UTC)temp
C
wind
direction
speed
KPH
gust
KPH
rain 1hr
cm
rain 24hr
cm
rain mn
cm
humidity
%
barometer
mb
20260901013009 24 136 0.0 0.0 0.00 0.00 0.00 85 1016.7
20260901011519 24 136 0.0 0.0 0.00 0.00 0.00 85 1016.8
20260901010012 25 169 0.0 3.2 0.00 0.00 0.00 84 1016.6
20260901004518 26 169 3.2 4.8 0.00 0.00 0.00 82 1016.4
20260901003021 26 38 0.0 0.0 0.00 0.00 0.00 80 1016.3
20260901001530 27 38 0.0 0.0 0.00 0.00 0.00 78 1016.2
20260901000038 27 38 0.0 0.0 0.00 0.00 0.00 76 1016.3
20260831234538 27 38 0.0 0.0 0.00 0.00 0.00 76 1016.2
20260831233038 28 38 0.0 0.0 0.00 0.00 0.00 75 1015.9
20260831231554 28 38 0.0 0.0 0.00 0.00 0.00 74 1015.9
20260831230051 28 38 0.0 0.0 0.00 0.00 0.00 73 1015.8
20260831224540 28 38 0.0 0.0 0.00 0.00 0.00 72 1015.7
20260831223058 29 38 0.0 0.0 0.00 0.00 0.00 71 1015.6
20260831221600 30 53 0.0 0.0 0.00 0.00 0.00 70 1015.6
20260831220011 30 312 0.0 0.0 0.00 0.00 0.00 72 1015.5
20260831214512 30 286 0.0 3.2 0.00 0.00 0.00 71 1015.6
20260831213012 30 294 0.0 4.8 0.00 0.00 0.00 69 1015.4
20260831211514 30 317 1.6 6.4 0.00 0.00 0.00 66 1015.0
20260831210059 31 287 0.0 0.0 0.00 0.00 0.00 69 1015.6
20260831204554 31 351 0.0 0.0 0.00 0.00 0.00 72 1016.0
20260831203053 30 262 0.0 4.8 0.00 0.00 0.00 72 1016.4
20260831203002 30 262 0.0 4.8 0.00 0.00 0.00 75 1016.4
20260831201559 29 38 0.0 0.0 0.00 0.00 0.00 75 1016.6
20260831200041 28 296 0.0 4.8 0.00 0.00 0.00 74 1016.8
20260831194545 29 269 0.0 0.0 0.00 0.00 0.00 74 1017.0
20260831193049 29 121 0.0 4.8 0.00 0.00 0.00 75 1017.4
20260831191551 30 330 0.0 3.2 0.00 0.00 0.00 74 1017.6
20260831190059 30 72 0.0 4.8 0.00 0.00 0.00 75 1017.9
20260831184559 29 306 0.0 6.4 0.00 0.00 0.00 76 1017.8
20260831183008 30 102 0.0 0.0 0.00 0.00 0.00 76 1018.0
20260831181511 29 290 1.6 4.8 0.00 0.00 0.00 78 1018.1
20260831180017 28 302 0.0 0.0 0.00 0.00 0.00 78 1018.3
20260831174521 28 302 0.0 0.0 0.00 0.00 0.00 77 1018.3
20260831173035 28 267 0.0 0.0 0.00 0.00 0.00 77 1018.5
20260831171529 28 60 0.0 0.0 0.00 0.00 0.00 76 1018.5
20260831170041 30 42 0.0 4.8 0.00 0.00 0.00 75 1018.5
20260831164545 29 240 3.2 14.5 0.00 0.00 0.00 75 1018.5
20260831163053 29 284 0.0 4.8 0.00 0.00 0.00 76 1018.7
20260831161600 28 307 0.0 14.5 0.00 0.00 0.00 77 1018.6
20260831160003 28 291 0.0 4.8 0.00 0.00 0.00 77 1018.6
20260831154507 29 308 0.0 3.2 0.00 0.00 0.00 77 1018.6
20260831153011 29 298 1.6 6.4 0.00 0.00 0.00 77 1018.6
20260831151510 28 330 0.0 6.4 0.00 0.00 0.00 76 1018.5
20260831150051 28 272 0.0 11.3 0.00 0.00 0.00 77 1018.5
20260831144553 27 300 0.0 6.4 0.00 0.00 0.00 80 1018.3
20260831143047 26 272 0.0 0.0 0.00 0.00 0.00 82 1018.2
20260831141551 26 287 0.0 0.0 0.00 0.00 0.00 83 1018.1
20260831140100 25 285 0.0 8.0 0.00 0.00 0.00 85 1018.1
20260831140001 24 285 0.0 8.0 0.00 0.00 0.00 85 1018.1
20260831134602 23 238 0.0 0.0 0.00 0.00 0.00 86 1018.3
20260831134501 23 221 0.0 0.0 0.00 0.00 0.00 86 1018.3
20260831133057 23 165 0.0 0.0 0.00 0.00 0.00 86 1018.3
20260831131502 22 165 0.0 0.0 0.00 0.00 0.00 87 1018.3
20260831130006 22 165 0.0 0.0 0.00 0.00 0.00 88 1018.4
20260831124524 22 165 0.0 0.0 0.00 0.00 0.00 88 1018.3
20260831123051 22 165 0.0 0.0 0.00 0.00 0.00 88 1018.1
20260831121545 21 165 0.0 0.0 0.00 0.00 0.00 88 1018.0
20260831120041 21 165 0.0 0.0 0.00 0.00 0.00 89 1018.0
20260831114545 20 165 0.0 0.0 0.00 0.00 0.00 89 1018.0
20260831113045 20 165 0.0 0.0 0.00 0.00 0.00 89 1017.9
20260831111534 20 165 0.0 0.0 0.00 0.00 0.00 89 1017.9
20260831110035 20 165 0.0 0.0 0.00 0.00 0.00 89 1017.8
20260831104537 20 165 0.0 0.0 0.00 0.00 0.00 89 1017.6
20260831103044 21 165 0.0 0.0 0.00 0.00 0.00 89 1017.4
20260831101557 21 165 0.0 0.0 0.00 0.00 0.00 89 1017.4
20260831100103 21 165 0.0 0.0 0.00 0.00 0.00 88 1017.3
20260831094615 21 165 0.0 0.0 0.00 0.00 0.00 88 1017.2
20260831093059 21 165 0.0 0.0 0.00 0.00 0.00 88 1017.2
20260831091506 21 165 0.0 0.0 0.00 0.00 0.00 88 1017.3
20260831090011 21 165 0.0 0.0 0.00 0.00 0.00 88 1017.4
20260831084517 21 165 0.0 0.0 0.00 0.00 0.00 88 1017.5
20260831083020 21 165 0.0 0.0 0.00 0.00 0.00 88 1017.4
20260831081526 21 165 0.0 0.0 0.00 0.00 0.00 88 1017.1
20260831080026 21 165 0.0 0.0 0.00 0.00 0.00 88 1017.0
20260831074530 21 165 0.0 0.0 0.00 0.00 0.00 88 1017.0
20260831073035 21 165 0.0 1.6 0.00 0.00 0.00 88 1017.0
20260831071549 21 165 1.6 3.2 0.00 0.00 0.00 88 1017.2
20260831070036 21 170 3.2 4.8 0.00 0.00 0.00 87 1017.2
20260831064541 22 170 0.0 0.0 0.00 0.00 0.00 86 1017.3
20260831063042 22 170 1.6 3.2 0.00 0.00 0.00 86 1017.4
20260831061545 22 170 0.0 0.0 0.00 0.00 0.00 86 1017.6
20260831060026 22 170 0.0 0.0 0.00 0.00 0.00 86 1017.7
20260831054532 22 170 0.0 0.0 0.00 0.00 0.00 86 1017.6
20260831053046 22 170 3.2 6.4 0.00 0.00 0.00 86 1017.7
20260831051535 21 195 1.6 4.8 0.00 0.00 0.00 86 1017.9
20260831050038 21 179 0.0 0.0 0.00 0.00 0.00 87 1017.8
20260831044549 21 179 0.0 6.4 0.00 0.00 0.00 87 1017.9
20260831043048 22 155 3.2 8.0 0.00 0.00 0.00 85 1017.8
20260831041528 21 176 3.2 6.4 0.00 0.00 0.00 86 1017.8
20260831040033 21 131 1.6 4.8 0.00 0.00 0.00 86 1017.9
20260831034530 21 180 3.2 4.8 0.00 0.00 0.00 87 1017.9
20260831033045 21 180 3.2 4.8 0.00 0.00 0.00 87 1018.0
20260831031537 21 180 0.0 0.0 0.00 0.00 0.00 87 1018.1
20260831030041 21 180 0.0 0.0 0.00 0.00 0.00 86 1018.2
20260831024557 22 180 0.0 0.0 0.00 0.00 0.00 85 1018.2
20260831023106 22 180 0.0 3.2 0.00 0.00 0.00 86 1018.1
20260831021602 22 180 0.0 3.2 0.00 0.00 0.00 86 1018.0
20260831021502 22 180 0.0 3.2 0.00 0.00 0.00 86 1018.0
20260831020006 22 180 1.6 4.8 0.00 0.00 0.00 86 1017.9
20260831014508 22 180 0.0 0.0 0.00 0.00 0.00 86 1017.8